Home   Weather   Suzhou   Past weeks

Flag for China Past Weather in Suzhou, Jiangsu, China — Yesterday and Last 2 Weeks

Now
79 °F

Clear.


Feels Like: 82 °F
Forecast: 73 / 83 °F
Wind: 6 mph from Southeast

Location: Shanghai Hongqiao Airport

Current Time: Oct 2, 2016 at 1:27:10 AM

Latest Report: Oct 2, 2016 at 1:00 AM


Visibility: 10 mi

Pressure: 29.92 "Hg

Humidity: 89%

Dew Point: 75 °F

Location of SuzhouLocation

Past Weather in Suzhou — Graph

°F

Suzhou Temperature Yesterday

Maximum temperature yesterday: 86 °F (at 2:00 PM)
Minimum temperature yesterday: 73 °F (at 1:00 AM)
Average temperature yesterday: 79 °F

High & Low Weather Summary for the Past Weeks

 TemperatureHumidityPressure
High88 °F (Sep 27, 11:00 AM)100% (Sep 17, 5:30 AM)30.12 "Hg (Sep 17, 5:30 AM)
Low66 °F (Sep 20, 5:30 AM)45% (Sep 20, 12:30 PM)29.71 "Hg (Sep 17, 12:00 AM)
Average77 °F77%29.91 "Hg
* Reported Sep 17 12:00 AM — Oct 2 12:00 AM, Suzhou, Weather by CustomWeather, © 2016

Note: Actual official high and low records may vary slightly from our data, if they occured in-between our weather recording intervals... More about our weather records

Advertising

Suzhou Weather History for the Previous 24 Hours

Scroll right to see more
 ConditionsComfort  
Time TempWeatherWind HumidityBarometerVisibility
12:00 AM
Sun, Oct 2
81 °FClear.8 mph84%29.92 "Hg10 mi
11:30 PM
Sat, Oct 1
81 °FClear.8 mph89%29.92 "Hg10 mi
11:00 PM81 °FClear.8 mph89%29.92 "Hg10 mi
10:30 PM81 °FClear.6 mph89%29.95 "Hg10 mi
10:00 PM81 °FClear.8 mph89%29.95 "Hg10 mi
9:30 PM81 °FClear.8 mph89%29.95 "Hg10 mi
9:00 PM81 °FClear.6 mph89%29.95 "Hg10 mi
8:30 PM81 °FClear.6 mph89%29.95 "Hg10 mi
8:00 PM81 °FClear.6 mph89%29.92 "Hg10 mi
7:30 PM81 °FClear.6 mph89%29.92 "Hg10 mi
7:00 PM82 °FClear.8 mph84%29.92 "Hg10 mi
6:30 PM82 °FClear.8 mph79%29.92 "Hg10 mi
6:00 PM82 °FPassing clouds.6 mph79%29.92 "HgN/A
5:30 PM84 °FSunny.3 mph74%29.89 "Hg10 mi
5:00 PM84 °FSunny.3 mph74%29.89 "Hg10 mi
4:30 PM84 °FPassing clouds.6 mph74%29.89 "HgN/A
4:00 PM84 °FSunny.6 mph74%29.89 "Hg10 mi
3:30 PM86 °FScattered clouds.6 mph66%29.89 "HgN/A
3:00 PM86 °FScattered clouds.6 mph70%29.89 "HgN/A
2:30 PM84 °FScattered clouds.6 mph74%29.89 "HgN/A
2:00 PM86 °FPartly sunny.6 mph70%29.89 "HgN/A
1:30 PM84 °FPartly sunny.6 mph74%29.92 "HgN/A
1:00 PM84 °FPartly sunny.8 mph74%29.92 "Hg5 mi
12:30 PM82 °FPartly sunny.8 mph79%29.92 "Hg5 mi
12:00 PM84 °FPartly sunny.8 mph74%29.95 "Hg4 mi
11:30 AM82 °FFog.6 mph79%29.95 "Hg3 mi
11:00 AM82 °FFog.6 mph79%29.95 "Hg3 mi
10:30 AM81 °FFog.6 mph84%29.95 "Hg3 mi
10:00 AM82 °FFog.6 mph79%29.95 "Hg3 mi
9:30 AM81 °FFog.8 mph79%29.95 "Hg3 mi
9:00 AM79 °FFog.8 mph84%29.95 "Hg2 mi
8:30 AM79 °FFog.3 mph89%29.95 "Hg2 mi
8:00 AM77 °FFog.1 mph89%29.95 "Hg2 mi
7:30 AM77 °FFog.1 mph94%29.92 "Hg2 mi
7:00 AM75 °FFog.3 mph94%29.92 "Hg2 mi
6:30 AM75 °FFog.1 mph94%29.92 "Hg1 mi
6:00 AM73 °FFog.1 mph100%29.92 "Hg1 mi
5:30 AM73 °FFog.1 mph100%29.89 "Hg2 mi
5:00 AM73 °FFog.1 mph100%29.92 "Hg2 mi
4:30 AM73 °FFog.1 mph100%29.89 "Hg1 mi
4:00 AM73 °FFog.1 mph100%29.89 "Hg1 mi
3:30 AM73 °FFog.1 mph100%29.89 "Hg2 mi
3:00 AM73 °FFog.1 mph100%29.89 "Hg1 mi
2:30 AM73 °FFog.1 mph100%29.89 "Hg1 mi
2:00 AM73 °FFog.3 mph100%29.92 "Hg1 mi
1:30 AM73 °FFog.3 mph100%29.92 "Hg1 mi
1:00 AM73 °FFog.3 mph100%29.92 "Hg2 mi
Weather by CustomWeather, © 2016

See weather overviewHow to use our weather pages